Location: *
(50.9167°S, 179.4000°W)
Time: 20:56:43
(UTC+00:00)

USA 81 - Pass Details

Date: 03 March 2024
Orbit: 783 x 787 km, 85.0° (Epoch: 15 April)

Event Time Altitude Azimuth Distance (km) Brightness Sun altitude
Rises 13:46:11 0° 188° (S) 3,324 8.1 -28.9°
Reaches altitude 10° 13:48:34 10° 188° (S) 2,388 7.2 -28.7°
Enters shadow 13:53:23 71° 203° (SSW) 846 4.2 -28.4°
